| time (UTC) | temp F | wind direction | speed MPH | gust MPH | rain 1hr in | rain 24hr in | rain mn in | humidity % | barometer mb |
| 20260504174002 | 62 | 260 | 6.0 | 15.0 | 0.00 | 0.00 | 0.00 | 37 | 1011.0 |
| 20260504173702 | 63 | 248 | 6.0 | 15.0 | 0.00 | 0.00 | 0.00 | 35 | 1011.1 |
| 20260504173602 | 63 | 243 | 6.0 | 15.0 | 0.00 | 0.00 | 0.00 | 35 | 1011.1 |
| 20260504172602 | 63 | 257 | 3.0 | 14.0 | 0.00 | 0.00 | 0.00 | 35 | 1011.3 |
| 20260504172002 | 64 | 150 | 4.0 | 9.0 | 0.00 | 0.00 | 0.00 | 36 | 1011.4 |
| 20260504171003 | 62 | 149 | 6.0 | 12.0 | 0.00 | 0.00 | 0.00 | 38 | 1011.4 |
| 20260504170603 | 62 | 155 | 6.0 | 11.0 | 0.00 | 0.00 | 0.00 | 37 | 1011.3 |
| 20260504170303 | 62 | 172 | 6.0 | 11.0 | 0.00 | 0.00 | 0.00 | 38 | 1011.3 |
| 20260504160402 | 60 | 135 | 2.0 | 6.0 | 0.00 | 0.00 | 0.00 | 33 | 1012.0 |
| 20260504150702 | 56 | 90 | 1.0 | 4.0 | 0.00 | 0.00 | 0.00 | 38 | 1011.9 |
| 20260504141002 | 54 | 0 | 0.0 | 0.0 | 0.00 | 0.00 | 0.00 | 42 | 1012.2 |
| 20260504140902 | 54 | 0 | 0.0 | 0.0 | 0.00 | 0.00 | 0.00 | 42 | 1012.2 |
| 20260504130802 | 50 | 0 | 0.0 | 2.0 | 0.00 | 0.00 | 0.00 | 44 | 1011.9 |
| 20260504130702 | 50 | 0 | 0.0 | 0.0 | 0.00 | 0.00 | 0.00 | 45 | 1012.0 |
| 20260504130603 | 50 | 0 | 0.0 | 0.0 | 0.00 | 0.00 | 0.00 | 45 | 1012.0 |
| 20260504130502 | 50 | 0 | 0.0 | 0.0 | 0.00 | 0.00 | 0.00 | 45 | 1012.0 |
| 20260504130402 | 50 | 0 | 0.0 | 0.0 | 0.00 | 0.00 | 0.00 | 45 | 1012.0 |
| 20260504130303 | 50 | 0 | 0.0 | 0.0 | 0.00 | 0.00 | 0.00 | 46 | 1012.0 |
| 20260504130202 | 50 | 0 | 0.0 | 0.0 | 0.00 | 0.00 | 0.00 | 44 | 1011.9 |
| 20260504120302 | 51 | 302 | 0.0 | 4.0 | 0.00 | 0.00 | 0.00 | 39 | 1011.0 |
| 20260504120202 | 51 | 0 | 0.0 | 4.0 | 0.00 | 0.00 | 0.00 | 39 | 1011.0 |
| 20260504110703 | 53 | 110 | 2.0 | 6.0 | 0.00 | 0.00 | 0.00 | 36 | 1011.3 |
| 20260504110602 | 53 | 109 | 2.0 | 6.0 | 0.00 | 0.00 | 0.00 | 36 | 1011.2 |
| 20260504110502 | 53 | 108 | 2.0 | 6.0 | 0.00 | 0.00 | 0.00 | 36 | 1011.1 |
| 20260504110403 | 53 | 108 | 1.0 | 6.0 | 0.00 | 0.00 | 0.00 | 35 | 1011.1 |
| 20260504110302 | 53 | 108 | 1.0 | 6.0 | 0.00 | 0.00 | 0.00 | 35 | 1011.2 |
| 20260504110203 | 53 | 108 | 1.0 | 6.0 | 0.00 | 0.00 | 0.00 | 35 | 1011.1 |
| 20260504100603 | 57 | 230 | 6.0 | 7.0 | 0.00 | 0.00 | 0.00 | 29 | 1010.7 |
| 20260504100503 | 57 | 232 | 6.0 | 7.0 | 0.00 | 0.00 | 0.00 | 29 | 1010.7 |
| 20260504100402 | 57 | 233 | 6.0 | 7.0 | 0.00 | 0.00 | 0.00 | 29 | 1010.7 |
| 20260504100303 | 57 | 235 | 6.0 | 7.0 | 0.00 | 0.00 | 0.00 | 29 | 1010.7 |
| 20260504100202 | 57 | 237 | 6.0 | 7.0 | 0.00 | 0.00 | 0.00 | 28 | 1010.6 |
| 20260504082003 | 54 | 256 | 3.0 | 5.0 | 0.00 | 0.00 | 0.00 | 36 | 1010.3 |
| 20260504081902 | 54 | 255 | 3.0 | 5.0 | 0.00 | 0.00 | 0.00 | 35 | 1010.4 |
| 20260504081702 | 53 | 248 | 3.0 | 5.0 | 0.00 | 0.00 | 0.00 | 32 | 1010.3 |
| 20260504081602 | 53 | 247 | 3.0 | 5.0 | 0.00 | 0.00 | 0.00 | 33 | 1010.3 |
| 20260504081503 | 52 | 246 | 3.0 | 5.0 | 0.00 | 0.00 | 0.00 | 34 | 1010.4 |
| 20260504081402 | 52 | 245 | 3.0 | 5.0 | 0.00 | 0.00 | 0.00 | 34 | 1010.5 |
| 20260504081302 | 52 | 242 | 3.0 | 5.0 | 0.00 | 0.00 | 0.00 | 36 | 1010.5 |
| 20260504081203 | 52 | 241 | 2.0 | 5.0 | 0.00 | 0.00 | 0.00 | 37 | 1010.4 |
| 20260504081002 | 51 | 246 | 2.0 | 6.0 | 0.00 | 0.00 | 0.00 | 37 | 1010.4 |
| 20260504080903 | 51 | 248 | 2.0 | 6.0 | 0.00 | 0.00 | 0.00 | 37 | 1010.5 |
| 20260504080802 | 51 | 252 | 2.0 | 6.0 | 0.00 | 0.00 | 0.00 | 38 | 1010.5 |
| 20260504080702 | 51 | 256 | 2.0 | 6.0 | 0.00 | 0.00 | 0.00 | 39 | 1010.5 |
| 20260504080603 | 51 | 258 | 1.0 | 6.0 | 0.00 | 0.00 | 0.00 | 38 | 1010.5 |
| 20260504080502 | 51 | 261 | 1.0 | 6.0 | 0.00 | 0.00 | 0.00 | 38 | 1010.5 |
| 20260504080403 | 51 | 263 | 1.0 | 6.0 | 0.00 | 0.00 | 0.00 | 38 | 1010.4 |
| 20260504080303 | 51 | 266 | 1.0 | 6.0 | 0.00 | 0.00 | 0.00 | 37 | 1010.5 |
| 20260504080202 | 51 | 270 | 1.0 | 6.0 | 0.00 | 0.00 | 0.00 | 38 | 1010.5 |
| 20260504070302 | 54 | 216 | 1.0 | 4.0 | 0.00 | 0.00 | 0.00 | 34 | 1011.0 |
| 20260504070202 | 54 | 216 | 1.0 | 4.0 | 0.00 | 0.00 | 0.00 | 34 | 1011.0 |
| 20260504050703 | 55 | 242 | 1.0 | 2.0 | 0.00 | 0.00 | 0.00 | 31 | 1011.5 |
| 20260504050602 | 55 | 244 | 1.0 | 2.0 | 0.00 | 0.00 | 0.00 | 32 | 1011.5 |
| 20260504050503 | 55 | 246 | 1.0 | 2.0 | 0.00 | 0.00 | 0.00 | 32 | 1011.5 |
| 20260504050302 | 56 | 252 | 0.0 | 2.0 | 0.00 | 0.00 | 0.00 | 31 | 1011.6 |
| 20260504050203 | 56 | 254 | 0.0 | 2.0 | 0.00 | 0.00 | 0.00 | 30 | 1011.7 |
| 20260504050002 | 56 | 255 | 0.0 | 2.0 | 0.00 | 0.00 | 0.00 | 30 | 1011.3 |
| 20260504045903 | 56 | 256 | 0.0 | 2.0 | 0.00 | 0.00 | 0.00 | 30 | 1011.3 |
| 20260504045803 | 56 | 257 | 0.0 | 2.0 | 0.00 | 0.00 | 0.00 | 30 | 1011.3 |
| 20260504045702 | 56 | 259 | 1.0 | 2.0 | 0.00 | 0.00 | 0.00 | 30 | 1011.3 |
| 20260504045603 | 56 | 261 | 1.0 | 2.0 | 0.00 | 0.00 | 0.00 | 29 | 1011.3 |
| 20260504045503 | 56 | 264 | 1.0 | 1.0 | 0.00 | 0.00 | 0.00 | 30 | 1011.3 |
| 20260504045402 | 56 | 278 | 1.0 | 1.0 | 0.00 | 0.00 | 0.00 | 30 | 1011.3 |
| 20260504045304 | 56 | 256 | 1.0 | 2.0 | 0.00 | 0.00 | 0.00 | 30 | 1011.3 |
| 20260504045202 | 56 | 250 | 2.0 | 4.0 | 0.00 | 0.00 | 0.00 | 30 | 1011.3 |
| 20260504045102 | 56 | 252 | 2.0 | 5.0 | 0.00 | 0.00 | 0.00 | 30 | 1011.3 |
| 20260504045003 | 56 | 255 | 2.0 | 5.0 | 0.00 | 0.00 | 0.00 | 30 | 1011.3 |
| 20260504044902 | 56 | 254 | 2.0 | 5.0 | 0.00 | 0.00 | 0.00 | 30 | 1011.3 |
| 20260504044802 | 56 | 253 | 1.0 | 5.0 | 0.00 | 0.00 | 0.00 | 30 | 1011.4 |
| 20260504044703 | 56 | 253 | 1.0 | 5.0 | 0.00 | 0.00 | 0.00 | 30 | 1011.4 |
| 20260504044602 | 56 | 252 | 1.0 | 5.0 | 0.00 | 0.00 | 0.00 | 31 | 1011.4 |
| 20260504044502 | 56 | 252 | 1.0 | 5.0 | 0.00 | 0.00 | 0.00 | 31 | 1011.4 |
| 20260504044403 | 56 | 252 | 1.0 | 5.0 | 0.00 | 0.00 | 0.00 | 30 | 1011.4 |
| 20260504044303 | 56 | 253 | 1.0 | 5.0 | 0.00 | 0.00 | 0.00 | 30 | 1011.4 |
| 20260504044103 | 56 | 255 | 1.0 | 5.0 | 0.00 | 0.00 | 0.00 | 30 | 1011.4 |
| 20260504044002 | 56 | 257 | 1.0 | 5.0 | 0.00 | 0.00 | 0.00 | 30 | 1011.5 |
| 20260504043902 | 56 | 259 | 1.0 | 4.0 | 0.00 | 0.00 | 0.00 | 30 | 1011.5 |
| 20260504043803 | 56 | 261 | 1.0 | 4.0 | 0.00 | 0.00 | 0.00 | 29 | 1011.5 |
| 20260504043703 | 56 | 261 | 1.0 | 4.0 | 0.00 | 0.00 | 0.00 | 30 | 1011.5 |
| 20260504043503 | 56 | 258 | 1.0 | 4.0 | 0.00 | 0.00 | 0.00 | 30 | 1011.5 |
| 20260504043403 | 56 | 258 | 1.0 | 4.0 | 0.00 | 0.00 | 0.00 | 30 | 1011.5 |
| 20260504043302 | 56 | 258 | 1.0 | 4.0 | 0.00 | 0.00 | 0.00 | 30 | 1011.5 |
| 20260504043203 | 56 | 258 | 1.0 | 4.0 | 0.00 | 0.00 | 0.00 | 30 | 1011.5 |
| 20260504043103 | 56 | 256 | 2.0 | 4.0 | 0.00 | 0.00 | 0.00 | 29 | 1011.5 |
| 20260504043002 | 56 | 249 | 2.0 | 4.0 | 0.00 | 0.00 | 0.00 | 30 | 1011.5 |
| 20260504042903 | 56 | 244 | 2.0 | 4.0 | 0.00 | 0.00 | 0.00 | 30 | 1011.6 |
| 20260504042802 | 56 | 245 | 2.0 | 5.0 | 0.00 | 0.00 | 0.00 | 30 | 1011.5 |
| 20260504042702 | 56 | 247 | 2.0 | 5.0 | 0.00 | 0.00 | 0.00 | 30 | 1011.5 |
| 20260504042603 | 56 | 249 | 2.0 | 5.0 | 0.00 | 0.00 | 0.00 | 30 | 1011.5 |
| 20260504042502 | 56 | 249 | 2.0 | 5.0 | 0.00 | 0.00 | 0.00 | 31 | 1011.5 |
| 20260504042402 | 56 | 249 | 2.0 | 5.0 | 0.00 | 0.00 | 0.00 | 30 | 1011.5 |
| 20260504042304 | 56 | 249 | 2.0 | 5.0 | 0.00 | 0.00 | 0.00 | 31 | 1011.5 |
| 20260504042203 | 56 | 249 | 1.0 | 5.0 | 0.00 | 0.00 | 0.00 | 30 | 1011.5 |
| 20260504042003 | 56 | 252 | 1.0 | 5.0 | 0.00 | 0.00 | 0.00 | 30 | 1011.5 |
| 20260504041903 | 57 | 253 | 1.0 | 5.0 | 0.00 | 0.00 | 0.00 | 29 | 1011.4 |
| 20260504041802 | 57 | 254 | 1.0 | 4.0 | 0.00 | 0.00 | 0.00 | 29 | 1011.4 |
| 20260504041703 | 57 | 255 | 0.0 | 4.0 | 0.00 | 0.00 | 0.00 | 29 | 1011.5 |
| 20260504041603 | 57 | 255 | 0.0 | 4.0 | 0.00 | 0.00 | 0.00 | 29 | 1011.5 |
| 20260504041502 | 57 | 256 | 0.0 | 4.0 | 0.00 | 0.00 | 0.00 | 29 | 1011.5 |
| 20260504041403 | 57 | 258 | 0.0 | 2.0 | 0.00 | 0.00 | 0.00 | 29 | 1011.5 |
| 20260504041302 | 57 | 261 | 0.0 | 2.0 | 0.00 | 0.00 | 0.00 | 30 | 1011.5 |
| 20260504041202 | 57 | 0 | 0.0 | 2.0 | 0.00 | 0.00 | 0.00 | 29 | 1011.5 |
| 20260504041103 | 57 | 0 | 0.0 | 2.0 | 0.00 | 0.00 | 0.00 | 29 | 1011.5 |
| 20260504041003 | 57 | 0 | 0.0 | 2.0 | 0.00 | 0.00 | 0.00 | 29 | 1011.6 |
| 20260504040902 | 57 | 0 | 0.0 | 2.0 | 0.00 | 0.00 | 0.00 | 29 | 1011.5 |
| 20260504040803 | 57 | 260 | 0.0 | 2.0 | 0.00 | 0.00 | 0.00 | 29 | 1011.5 |
| 20260504040703 | 57 | 248 | 0.0 | 2.0 | 0.00 | 0.00 | 0.00 | 29 | 1011.5 |
| 20260504040602 | 57 | 246 | 0.0 | 2.0 | 0.00 | 0.00 | 0.00 | 29 | 1011.5 |
| 20260504040503 | 57 | 246 | 0.0 | 2.0 | 0.00 | 0.00 | 0.00 | 29 | 1011.5 |
| 20260504040403 | 57 | 246 | 0.0 | 2.0 | 0.00 | 0.00 | 0.00 | 29 | 1011.4 |
| 20260504040302 | 58 | 246 | 0.0 | 2.0 | 0.00 | 0.00 | 0.00 | 29 | 1011.5 |
| 20260504040203 | 58 | 246 | 1.0 | 2.0 | 0.00 | 0.00 | 0.00 | 30 | 1011.5 |
| 20260504040103 | 58 | 246 | 1.0 | 2.0 | 0.00 | 0.00 | 0.00 | 29 | 1011.5 |
| 20260504035902 | 58 | 247 | 1.0 | 2.0 | 0.00 | 0.00 | 0.00 | 29 | 1011.5 |
| 20260504035803 | 58 | 249 | 1.0 | 4.0 | 0.00 | 0.00 | 0.00 | 28 | 1011.5 |
| 20260504035702 | 58 | 252 | 2.0 | 4.0 | 0.00 | 0.00 | 0.00 | 28 | 1011.5 |
| 20260504035602 | 58 | 252 | 2.0 | 4.0 | 0.00 | 0.00 | 0.00 | 28 | 1011.5 |
| 20260504035503 | 58 | 252 | 2.0 | 4.0 | 0.00 | 0.00 | 0.00 | 28 | 1011.5 |
| 20260504035402 | 58 | 252 | 2.0 | 4.0 | 0.00 | 0.00 | 0.00 | 28 | 1011.5 |
| 20260504035304 | 58 | 253 | 2.0 | 4.0 | 0.00 | 0.00 | 0.00 | 28 | 1011.5 |
| 20260504035203 | 59 | 253 | 2.0 | 4.0 | 0.00 | 0.00 | 0.00 | 28 | 1011.5 |
| 20260504035102 | 59 | 253 | 2.0 | 4.0 | 0.00 | 0.00 | 0.00 | 29 | 1011.4 |
| 20260504035002 | 59 | 253 | 2.0 | 4.0 | 0.00 | 0.00 | 0.00 | 28 | 1011.4 |
| 20260504034903 | 59 | 253 | 2.0 | 4.0 | 0.00 | 0.00 | 0.00 | 27 | 1011.4 |
| 20260504034802 | 59 | 254 | 2.0 | 4.0 | 0.00 | 0.00 | 0.00 | 27 | 1011.4 |
| 20260504034702 | 59 | 256 | 2.0 | 4.0 | 0.00 | 0.00 | 0.00 | 27 | 1011.4 |
| 20260504034603 | 59 | 257 | 2.0 | 4.0 | 0.00 | 0.00 | 0.00 | 27 | 1011.4 |
| 20260504034502 | 59 | 258 | 2.0 | 4.0 | 0.00 | 0.00 | 0.00 | 27 | 1011.5 |
| 20260504034403 | 60 | 259 | 2.0 | 4.0 | 0.00 | 0.00 | 0.00 | 27 | 1011.4 |
| 20260504034303 | 60 | 259 | 2.0 | 4.0 | 0.00 | 0.00 | 0.00 | 27 | 1011.5 |
| 20260504034202 | 60 | 260 | 2.0 | 4.0 | 0.00 | 0.00 | 0.00 | 27 | 1011.5 |
| 20260504034103 | 60 | 260 | 2.0 | 4.0 | 0.00 | 0.00 | 0.00 | 27 | 1011.5 |
| 20260504034003 | 60 | 260 | 2.0 | 4.0 | 0.00 | 0.00 | 0.00 | 27 | 1011.5 |
| 20260504033902 | 60 | 261 | 2.0 | 5.0 | 0.00 | 0.00 | 0.00 | 27 | 1011.5 |
| 20260504033803 | 59 | 262 | 2.0 | 5.0 | 0.00 | 0.00 | 0.00 | 27 | 1011.5 |
| 20260504033703 | 59 | 261 | 1.0 | 5.0 | 0.00 | 0.00 | 0.00 | 27 | 1011.5 |
| 20260504033603 | 59 | 262 | 1.0 | 5.0 | 0.00 | 0.00 | 0.00 | 27 | 1011.5 |
| 20260504033503 | 59 | 262 | 1.0 | 5.0 | 0.00 | 0.00 | 0.00 | 27 | 1011.5 |
| 20260504033402 | 59 | 262 | 1.0 | 5.0 | 0.00 | 0.00 | 0.00 | 27 | 1011.5 |
| 20260504033303 | 59 | 261 | 1.0 | 5.0 | 0.00 | 0.00 | 0.00 | 27 | 1011.4 |
| 20260504033203 | 59 | 261 | 1.0 | 5.0 | 0.00 | 0.00 | 0.00 | 28 | 1011.4 |
| 20260504033003 | 59 | 261 | 1.0 | 5.0 | 0.00 | 0.00 | 0.00 | 28 | 1011.4 |
| 20260504032903 | 59 | 261 | 1.0 | 4.0 | 0.00 | 0.00 | 0.00 | 28 | 1011.4 |
| 20260504032802 | 59 | 255 | 1.0 | 3.0 | 0.00 | 0.00 | 0.00 | 29 | 1011.4 |
| 20260504032703 | 59 | 252 | 1.0 | 3.0 | 0.00 | 0.00 | 0.00 | 28 | 1011.4 |
| 20260504032603 | 59 | 251 | 1.0 | 2.0 | 0.00 | 0.00 | 0.00 | 28 | 1011.4 |
| 20260504032502 | 59 | 251 | 1.0 | 2.0 | 0.00 | 0.00 | 0.00 | 28 | 1011.4 |
| 20260504032403 | 59 | 251 | 1.0 | 2.0 | 0.00 | 0.00 | 0.00 | 28 | 1011.4 |
| 20260504032304 | 60 | 254 | 1.0 | 2.0 | 0.00 | 0.00 | 0.00 | 28 | 1011.4 |
| 20260504032202 | 60 | 256 | 1.0 | 4.0 | 0.00 | 0.00 | 0.00 | 27 | 1011.5 |
| 20260504032103 | 60 | 258 | 1.0 | 4.0 | 0.00 | 0.00 | 0.00 | 27 | 1011.5 |
| 20260504032003 | 60 | 258 | 1.0 | 4.0 | 0.00 | 0.00 | 0.00 | 28 | 1011.4 |
| 20260504031902 | 60 | 257 | 1.0 | 4.0 | 0.00 | 0.00 | 0.00 | 27 | 1011.4 |
| 20260504031803 | 60 | 258 | 1.0 | 4.0 | 0.00 | 0.00 | 0.00 | 27 | 1011.4 |
| 20260504031602 | 60 | 257 | 1.0 | 4.0 | 0.00 | 0.00 | 0.00 | 26 | 1011.4 |
| 20260504031503 | 60 | 256 | 2.0 | 4.0 | 0.00 | 0.00 | 0.00 | 27 | 1011.4 |
| 20260504031403 | 60 | 256 | 2.0 | 4.0 | 0.00 | 0.00 | 0.00 | 27 | 1011.4 |
| 20260504031302 | 60 | 256 | 2.0 | 4.0 | 0.00 | 0.00 | 0.00 | 27 | 1011.4 |
| 20260504031203 | 60 | 255 | 2.0 | 3.0 | 0.00 | 0.00 | 0.00 | 28 | 1011.4 |
| 20260504031103 | 60 | 254 | 3.0 | 3.0 | 0.00 | 0.00 | 0.00 | 27 | 1011.3 |
| 20260504031002 | 60 | 252 | 3.0 | 4.0 | 0.00 | 0.00 | 0.00 | 27 | 1011.4 |
| 20260504030903 | 60 | 253 | 3.0 | 4.0 | 0.00 | 0.00 | 0.00 | 27 | 1011.4 |
| 20260504030803 | 60 | 254 | 4.0 | 5.0 | 0.00 | 0.00 | 0.00 | 27 | 1011.4 |
| 20260504030702 | 60 | 253 | 4.0 | 5.0 | 0.00 | 0.00 | 0.00 | 27 | 1011.4 |
| 20260504030603 | 60 | 253 | 4.0 | 5.0 | 0.00 | 0.00 | 0.00 | 27 | 1011.3 |
| 20260504030502 | 60 | 253 | 4.0 | 5.0 | 0.00 | 0.00 | 0.00 | 27 | 1011.4 |
| 20260504030403 | 60 | 253 | 3.0 | 6.0 | 0.00 | 0.00 | 0.00 | 27 | 1011.3 |
| 20260504030303 | 60 | 252 | 3.0 | 6.0 | 0.00 | 0.00 | 0.00 | 27 | 1011.3 |
| 20260504030202 | 59 | 252 | 3.0 | 6.0 | 0.00 | 0.00 | 0.00 | 28 | 1011.3 |
| 20260504030003 | 60 | 251 | 2.0 | 6.0 | 0.00 | 0.00 | 0.00 | 28 | 1011.3 |
| 20260504025902 | 60 | 251 | 2.0 | 6.0 | 0.00 | 0.00 | 0.00 | 28 | 1011.3 |
| 20260504025703 | 60 | 249 | 2.0 | 6.0 | 0.00 | 0.00 | 0.00 | 28 | 1011.3 |
| 20260504025602 | 60 | 249 | 1.0 | 6.0 | 0.00 | 0.00 | 0.00 | 27 | 1011.3 |
| 20260504025503 | 60 | 249 | 1.0 | 6.0 | 0.00 | 0.00 | 0.00 | 27 | 1011.4 |
| 20260504025403 | 60 | 251 | 1.0 | 5.0 | 0.00 | 0.00 | 0.00 | 28 | 1011.3 |
| 20260504025304 | 60 | 253 | 1.0 | 5.0 | 0.00 | 0.00 | 0.00 | 27 | 1011.3 |
| 20260504025203 | 60 | 255 | 1.0 | 5.0 | 0.00 | 0.00 | 0.00 | 28 | 1011.3 |
| 20260504025103 | 60 | 259 | 1.0 | 4.0 | 0.00 | 0.00 | 0.00 | 26 | 1011.3 |
| 20260504025002 | 61 | 262 | 1.0 | 4.0 | 0.00 | 0.00 | 0.00 | 28 | 1011.2 |
| 20260504024903 | 61 | 267 | 1.0 | 2.0 | 0.00 | 0.00 | 0.00 | 26 | 1011.2 |
| 20260504024803 | 61 | 270 | 1.0 | 2.0 | 0.00 | 0.00 | 0.00 | 26 | 1011.2 |
| 20260504024703 | 62 | 270 | 1.0 | 2.0 | 0.00 | 0.00 | 0.00 | 26 | 1011.2 |
| 20260504024603 | 62 | 269 | 1.0 | 2.0 | 0.00 | 0.00 | 0.00 | 25 | 1011.2 |
| 20260504024502 | 62 | 269 | 1.0 | 2.0 | 0.00 | 0.00 | 0.00 | 24 | 1011.1 |
| 20260504024403 | 62 | 269 | 1.0 | 2.0 | 0.00 | 0.00 | 0.00 | 24 | 1011.2 |
| 20260504024303 | 62 | 268 | 1.0 | 2.0 | 0.00 | 0.00 | 0.00 | 24 | 1011.2 |
| 20260504024202 | 62 | 268 | 1.0 | 2.0 | 0.00 | 0.00 | 0.00 | 24 | 1011.2 |
| 20260504024103 | 62 | 268 | 1.0 | 2.0 | 0.00 | 0.00 | 0.00 | 24 | 1011.2 |
| 20260504024003 | 62 | 269 | 1.0 | 2.0 | 0.00 | 0.00 | 0.00 | 24 | 1011.2 |
| 20260504023902 | 62 | 269 | 1.0 | 2.0 | 0.00 | 0.00 | 0.00 | 24 | 1011.2 |
| 20260504023803 | 62 | 268 | 2.0 | 2.0 | 0.00 | 0.00 | 0.00 | 24 | 1011.2 |
| 20260504023602 | 62 | 270 | 2.0 | 4.0 | 0.00 | 0.00 | 0.00 | 23 | 1011.2 |
| 20260504023503 | 63 | 271 | 2.0 | 4.0 | 0.00 | 0.00 | 0.00 | 23 | 1011.1 |
| 20260504023403 | 63 | 272 | 2.0 | 4.0 | 0.00 | 0.00 | 0.00 | 23 | 1011.1 |
| 20260504023302 | 63 | 272 | 2.0 | 5.0 | 0.00 | 0.00 | 0.00 | 23 | 1011.1 |
| 20260504023203 | 63 | 273 | 2.0 | 5.0 | 0.00 | 0.00 | 0.00 | 23 | 1011.1 |
| 20260504023102 | 63 | 273 | 2.0 | 5.0 | 0.00 | 0.00 | 0.00 | 23 | 1011.2 |
| 20260504023003 | 63 | 273 | 1.0 | 5.0 | 0.00 | 0.00 | 0.00 | 23 | 1011.1 |
| 20260504022802 | 63 | 275 | 1.0 | 5.0 | 0.00 | 0.00 | 0.00 | 22 | 1011.1 |
| 20260504022702 | 63 | 275 | 1.0 | 5.0 | 0.00 | 0.00 | 0.00 | 23 | 1011.2 |
| 20260504022603 | 63 | 275 | 1.0 | 5.0 | 0.00 | 0.00 | 0.00 | 22 | 1011.1 |
| 20260504022502 | 63 | 276 | 1.0 | 5.0 | 0.00 | 0.00 | 0.00 | 23 | 1011.2 |
| 20260504022402 | 63 | 277 | 1.0 | 5.0 | 0.00 | 0.00 | 0.00 | 22 | 1011.1 |
| 20260504022304 | 64 | 283 | 1.0 | 5.0 | 0.00 | 0.00 | 0.00 | 22 | 1011.2 |
| 20260504022202 | 64 | 301 | 1.0 | 4.0 | 0.00 | 0.00 | 0.00 | 23 | 1011.2 |
| 20260504022103 | 64 | 76 | 1.0 | 3.0 | 0.00 | 0.00 | 0.00 | 23 | 1011.2 |
| 20260504022003 | 64 | 94 | 1.0 | 2.0 | 0.00 | 0.00 | 0.00 | 21 | 1011.1 |
| 20260504021902 | 64 | 98 | 2.0 | 2.0 | 0.00 | 0.00 | 0.00 | 21 | 1011.0 |
| 20260504021803 | 64 | 100 | 2.0 | 2.0 | 0.00 | 0.00 | 0.00 | 21 | 1011.0 |
| 20260504021703 | 64 | 98 | 2.0 | 2.0 | 0.00 | 0.00 | 0.00 | 21 | 1010.9 |
| 20260504021602 | 64 | 86 | 3.0 | 4.0 | 0.00 | 0.00 | 0.00 | 20 | 1011.0 |
| 20260504021503 | 64 | 71 | 3.0 | 5.0 | 0.00 | 0.00 | 0.00 | 21 | 1010.9 |
| 20260504021403 | 64 | 61 | 3.0 | 5.0 | 0.00 | 0.00 | 0.00 | 21 | 1011.0 |
| 20260504021303 | 64 | 53 | 3.0 | 5.0 | 0.00 | 0.00 | 0.00 | 21 | 1011.0 |
| 20260504021203 | 64 | 39 | 3.0 | 5.0 | 0.00 | 0.00 | 0.00 | 21 | 1010.9 |
| 20260504021003 | 65 | 5 | 4.0 | 6.0 | 0.00 | 0.00 | 0.00 | 21 | 1011.0 |
| 20260504020903 | 65 | 349 | 4.0 | 8.0 | 0.00 | 0.00 | 0.00 | 22 | 1011.1 |
| 20260504020802 | 66 | 342 | 4.0 | 8.0 | 0.00 | 0.00 | 0.00 | 21 | 1011.0 |
| 20260504020703 | 66 | 341 | 5.0 | 8.0 | 0.00 | 0.00 | 0.00 | 20 | 1011.0 |
| 20260504020603 | 66 | 340 | 5.0 | 8.0 | 0.00 | 0.00 | 0.00 | 19 | 1010.9 |
| 20260504020502 | 66 | 335 | 5.0 | 8.0 | 0.00 | 0.00 | 0.00 | 19 | 1010.9 |
| 20260504020403 | 66 | 331 | 5.0 | 8.0 | 0.00 | 0.00 | 0.00 | 19 | 1011.3 |
| 20260504020303 | 67 | 330 | 6.0 | 8.0 | 0.00 | 0.00 | 0.00 | 18 | 1011.3 |
| 20260504020202 | 67 | 331 | 6.0 | 8.0 | 0.00 | 0.00 | 0.00 | 18 | 1011.3 |
| 20260504020003 | 67 | 345 | 7.0 | 8.0 | 0.00 | 0.00 | 0.00 | 18 | 1011.0 |
| 20260504015902 | 67 | 354 | 7.0 | 8.0 | 0.00 | 0.00 | 0.00 | 19 | 1011.0 |
| 20260504015803 | 67 | 2 | 8.0 | 13.0 | 0.00 | 0.00 | 0.00 | 18 | 1011.0 |
| 20260504015703 | 67 | 8 | 8.0 | 20.0 | 0.00 | 0.00 | 0.00 | 18 | 1011.0 |
| 20260504015602 | 67 | 10 | 8.0 | 20.0 | 0.00 | 0.00 | 0.00 | 17 | 1011.0 |
| 20260504015503 | 67 | 10 | 7.0 | 20.0 | 0.00 | 0.00 | 0.00 | 17 | 1011.1 |
| 20260504015403 | 67 | 12 | 7.0 | 20.0 | 0.00 | 0.00 | 0.00 | 17 | 1011.1 |
| 20260504015304 | 67 | 10 | 7.0 | 20.0 | 0.00 | 0.00 | 0.00 | 18 | 1011.1 |
| 20260504015203 | 67 | 5 | 7.0 | 20.0 | 0.00 | 0.00 | 0.00 | 18 | 1011.1 |
| 20260504015103 | 67 | 355 | 6.0 | 25.0 | 0.00 | 0.00 | 0.00 | 17 | 1011.0 |
| 20260504015002 | 67 | 348 | 5.0 | 25.0 | 0.00 | 0.00 | 0.00 | 17 | 1011.0 |
| 20260504014903 | 66 | 344 | 4.0 | 25.0 | 0.00 | 0.00 | 0.00 | 18 | 1011.1 |
| 20260504014803 | 66 | 339 | 4.0 | 25.0 | 0.00 | 0.00 | 0.00 | 18 | 1011.1 |
| 20260504014702 | 66 | 333 | 3.0 | 25.0 | 0.00 | 0.00 | 0.00 | 19 | 1011.0 |
| 20260504014603 | 66 | 323 | 3.0 | 25.0 | 0.00 | 0.00 | 0.00 | 18 | 1011.1 |
| 20260504014503 | 66 | 319 | 2.0 | 25.0 | 0.00 | 0.00 | 0.00 | 18 | 1011.0 |
| 20260504014402 | 66 | 322 | 2.0 | 25.0 | 0.00 | 0.00 | 0.00 | 18 | 1011.0 |
| 20260504014303 | 66 | 326 | 2.0 | 25.0 | 0.00 | 0.00 | 0.00 | 19 | 1011.1 |
| 20260504014203 | 66 | 325 | 1.0 | 25.0 | 0.00 | 0.00 | 0.00 | 19 | 1011.2 |
| 20260504014102 | 65 | 323 | 1.0 | 12.0 | 0.00 | 0.00 | 0.00 | 20 | 1011.2 |
| 20260504014003 | 65 | 327 | 1.0 | 5.0 | 0.00 | 0.00 | 0.00 | 22 | 1011.4 |
| 20260504013902 | 65 | 332 | 1.0 | 4.0 | 0.00 | 0.00 | 0.00 | 23 | 1011.3 |
| 20260504013802 | 66 | 338 | 1.0 | 4.0 | 0.00 | 0.00 | 0.00 | 25 | 1011.5 |
| 20260504013703 | 66 | 334 | 1.0 | 4.0 | 0.00 | 0.00 | 0.00 | 21 | 1011.4 |
| 20260504013602 | 66 | 335 | 1.0 | 4.0 | 0.00 | 0.00 | 0.00 | 21 | 1011.4 |
| 20260504013403 | 66 | 317 | 1.0 | 4.0 | 0.00 | 0.00 | 0.00 | 21 | 1011.4 |
| 20260504013303 | 66 | 315 | 1.0 | 4.0 | 0.00 | 0.00 | 0.00 | 21 | 1011.4 |
| 20260504013202 | 66 | 314 | 1.0 | 4.0 | 0.00 | 0.00 | 0.00 | 21 | 1011.4 |
| 20260504013103 | 65 | 313 | 1.0 | 4.0 | 0.00 | 0.00 | 0.00 | 21 | 1011.4 |
| 20260504013003 | 65 | 303 | 1.0 | 2.0 | 0.00 | 0.00 | 0.00 | 23 | 1011.4 |
| 20260504012902 | 66 | 301 | 1.0 | 1.0 | 0.00 | 0.00 | 0.00 | 23 | 1011.3 |
| 20260504012802 | 66 | 307 | 1.0 | 1.0 | 0.00 | 0.00 | 0.00 | 22 | 1011.3 |
| 20260504012703 | 66 | 22 | 1.0 | 2.0 | 0.00 | 0.00 | 0.00 | 23 | 1011.4 |
| 20260504012602 | 66 | 45 | 2.0 | 2.0 | 0.00 | 0.00 | 0.00 | 22 | 1011.4 |
| 20260504012502 | 66 | 51 | 2.0 | 4.0 | 0.00 | 0.00 | 0.00 | 23 | 1011.4 |
| 20260504012403 | 66 | 50 | 2.0 | 5.0 | 0.00 | 0.00 | 0.00 | 22 | 1011.4 |
| 20260504012304 | 66 | 50 | 2.0 | 5.0 | 0.00 | 0.00 | 0.00 | 22 | 1011.4 |
| 20260504012103 | 66 | 48 | 3.0 | 5.0 | 0.00 | 0.00 | 0.00 | 23 | 1011.4 |
| 20260504012003 | 66 | 46 | 3.0 | 5.0 | 0.00 | 0.00 | 0.00 | 22 | 1011.4 |
| 20260504011902 | 66 | 43 | 3.0 | 5.0 | 0.00 | 0.00 | 0.00 | 22 | 1011.4 |
| 20260504011703 | 66 | 42 | 4.0 | 5.0 | 0.00 | 0.00 | 0.00 | 23 | 1011.4 |
| 20260504011603 | 66 | 41 | 4.0 | 6.0 | 0.00 | 0.00 | 0.00 | 23 | 1011.4 |
| 20260504011502 | 66 | 42 | 4.0 | 6.0 | 0.00 | 0.00 | 0.00 | 23 | 1011.4 |
| 20260504011403 | 66 | 42 | 4.0 | 6.0 | 0.00 | 0.00 | 0.00 | 23 | 1011.4 |
| 20260504011303 | 66 | 42 | 4.0 | 6.0 | 0.00 | 0.00 | 0.00 | 24 | 1011.4 |
| 20260504011102 | 66 | 44 | 5.0 | 6.0 | 0.00 | 0.00 | 0.00 | 24 | 1011.5 |
| 20260504011003 | 66 | 44 | 5.0 | 7.0 | 0.00 | 0.00 | 0.00 | 25 | 1011.5 |
| 20260504010802 | 66 | 45 | 5.0 | 9.0 | 0.00 | 0.00 | 0.00 | 24 | 1011.5 |
| 20260504010702 | 66 | 44 | 5.0 | 9.0 | 0.00 | 0.00 | 0.00 | 24 | 1011.5 |
| 20260504010603 | 66 | 44 | 5.0 | 9.0 | 0.00 | 0.00 | 0.00 | 24 | 1011.5 |
| 20260504010502 | 66 | 43 | 5.0 | 9.0 | 0.00 | 0.00 | 0.00 | 23 | 1011.4 |
| 20260504010402 | 66 | 41 | 5.0 | 9.0 | 0.00 | 0.00 | 0.00 | 21 | 1011.5 |
| 20260504010303 | 66 | 39 | 5.0 | 9.0 | 0.00 | 0.00 | 0.00 | 23 | 1011.5 |
| 20260504010203 | 66 | 38 | 5.0 | 9.0 | 0.00 | 0.00 | 0.00 | 22 | 1011.5 |
| 20260504010002 | 66 | 34 | 5.0 | 9.0 | 0.00 | 0.00 | 0.00 | 23 | 1011.5 |
| 20260504005902 | 66 | 31 | 5.0 | 9.0 | 0.00 | 0.00 | 0.00 | 22 | 1011.5 |
| 20260504005803 | 66 | 29 | 5.0 | 8.0 | 0.00 | 0.00 | 0.00 | 23 | 1011.6 |
| 20260504005702 | 67 | 29 | 5.0 | 8.0 | 0.00 | 0.00 | 0.00 | 23 | 1011.6 |
| 20260504005602 | 67 | 29 | 4.0 | 8.0 | 0.00 | 0.00 | 0.00 | 24 | 1011.7 |
| 20260504005503 | 67 | 27 | 4.0 | 8.0 | 0.00 | 0.00 | 0.00 | 23 | 1011.6 |
| 20260504005403 | 67 | 26 | 4.0 | 8.0 | 0.00 | 0.00 | 0.00 | 22 | 1011.6 |
| 20260504005304 | 67 | 24 | 4.0 | 8.0 | 0.00 | 0.00 | 0.00 | 22 | 1011.6 |
| 20260504005203 | 67 | 19 | 4.0 | 8.0 | 0.00 | 0.00 | 0.00 | 22 | 1011.6 |
| 20260504005103 | 67 | 16 | 4.0 | 8.0 | 0.00 | 0.00 | 0.00 | 22 | 1011.6 |
| 20260504005002 | 67 | 14 | 4.0 | 8.0 | 0.00 | 0.00 | 0.00 | 23 | 1011.6 |
| 20260504004902 | 67 | 11 | 4.0 | 8.0 | 0.00 | 0.00 | 0.00 | 21 | 1011.6 |
| 20260504004803 | 67 | 7 | 3.0 | 7.0 | 0.00 | 0.00 | 0.00 | 22 | 1011.6 |
| 20260504004702 | 68 | 4 | 3.0 | 7.0 | 0.00 | 0.00 | 0.00 | 22 | 1011.6 |
| 20260504004602 | 68 | 359 | 3.0 | 7.0 | 0.00 | 0.00 | 0.00 | 20 | 1011.7 |
| 20260504004503 | 68 | 1 | 3.0 | 8.0 | 0.00 | 0.00 | 0.00 | 20 | 1011.6 |
| 20260504004403 | 68 | 359 | 3.0 | 8.0 | 0.00 | 0.00 | 0.00 | 20 | 1011.7 |
| 20260504004302 | 68 | 359 | 3.0 | 8.0 | 0.00 | 0.00 | 0.00 | 20 | 1011.7 |
| 20260504004203 | 68 | 2 | 3.0 | 8.0 | 0.00 | 0.00 | 0.00 | 20 | 1011.7 |
| 20260504004103 | 68 | 7 | 4.0 | 8.0 | 0.00 | 0.00 | 0.00 | 20 | 1011.7 |
| 20260504004002 | 68 | 8 | 4.0 | 8.0 | 0.00 | 0.00 | 0.00 | 20 | 1011.8 |
| 20260504003902 | 68 | 6 | 4.0 | 8.0 | 0.00 | 0.00 | 0.00 | 20 | 1011.7 |
| 20260504003803 | 68 | 14 | 4.0 | 8.0 | 0.00 | 0.00 | 0.00 | 20 | 1011.7 |
| 20260504003703 | 68 | 22 | 4.0 | 8.0 | 0.00 | 0.00 | 0.00 | 20 | 1011.8 |
| 20260504003602 | 68 | 25 | 5.0 | 8.0 | 0.00 | 0.00 | 0.00 | 19 | 1011.7 |
| 20260504003502 | 68 | 28 | 5.0 | 8.0 | 0.00 | 0.00 | 0.00 | 21 | 1011.7 |
| 20260504003403 | 68 | 31 | 5.0 | 8.0 | 0.00 | 0.00 | 0.00 | 21 | 1011.7 |
| 20260504003302 | 68 | 31 | 5.0 | 8.0 | 0.00 | 0.00 | 0.00 | 20 | 1011.7 |
| 20260504003202 | 68 | 33 | 4.0 | 8.0 | 0.00 | 0.00 | 0.00 | 20 | 1011.8 |
| 20260504003103 | 68 | 34 | 4.0 | 8.0 | 0.00 | 0.00 | 0.00 | 19 | 1011.8 |
| 20260504003003 | 68 | 34 | 4.0 | 8.0 | 0.00 | 0.00 | 0.00 | 19 | 1011.8 |
| 20260504002902 | 68 | 38 | 4.0 | 8.0 | 0.00 | 0.00 | 0.00 | 19 | 1011.8 |
| 20260504002803 | 68 | 40 | 3.0 | 8.0 | 0.00 | 0.00 | 0.00 | 20 | 1011.8 |
| 20260504002703 | 68 | 40 | 3.0 | 8.0 | 0.00 | 0.00 | 0.00 | 18 | 1011.7 |
| 20260504002602 | 68 | 42 | 2.0 | 8.0 | 0.00 | 0.00 | 0.00 | 19 | 1011.8 |
| 20260504002502 | 68 | 42 | 2.0 | 8.0 | 0.00 | 0.00 | 0.00 | 19 | 1011.8 |
| 20260504002303 | 68 | 43 | 2.0 | 6.0 | 0.00 | 0.00 | 0.00 | 23 | 1011.9 |
| 20260504002202 | 69 | 44 | 2.0 | 6.0 | 0.00 | 0.00 | 0.00 | 21 | 1011.8 |
| 20260504002103 | 69 | 45 | 2.0 | 6.0 | 0.00 | 0.00 | 0.00 | 20 | 1011.8 |
| 20260504002003 | 69 | 46 | 2.0 | 6.0 | 0.00 | 0.00 | 0.00 | 21 | 1011.8 |
| 20260504001902 | 69 | 41 | 2.0 | 6.0 | 0.00 | 0.00 | 0.00 | 20 | 1011.8 |
| 20260504001803 | 70 | 356 | 2.0 | 6.0 | 0.00 | 0.00 | 0.00 | 20 | 1011.8 |
| 20260504001703 | 70 | 284 | 2.0 | 6.0 | 0.00 | 0.00 | 0.00 | 17 | 1011.7 |
| 20260504001602 | 70 | 268 | 2.0 | 6.0 | 0.00 | 0.00 | 0.00 | 15 | 1011.8 |
| 20260504001502 | 70 | 267 | 2.0 | 6.0 | 0.00 | 0.00 | 0.00 | 16 | 1011.8 |
| 20260504001403 | 70 | 267 | 2.0 | 6.0 | 0.00 | 0.00 | 0.00 | 17 | 1011.7 |
| 20260504001302 | 70 | 269 | 2.0 | 6.0 | 0.00 | 0.00 | 0.00 | 18 | 1011.8 |
| 20260504001202 | 70 | 270 | 3.0 | 6.0 | 0.00 | 0.00 | 0.00 | 18 | 1011.8 |
| 20260504001103 | 70 | 273 | 3.0 | 6.0 | 0.00 | 0.00 | 0.00 | 17 | 1011.7 |
| 20260504001003 | 70 | 280 | 3.0 | 6.0 | 0.00 | 0.00 | 0.00 | 16 | 1011.7 |
| 20260504000902 | 70 | 286 | 4.0 | 6.0 | 0.00 | 0.00 | 0.00 | 16 | 1011.7 |
| 20260504000703 | 70 | 300 | 4.0 | 6.0 | 0.00 | 0.00 | 0.00 | 17 | 1011.8 |
| 20260504000602 | 70 | 299 | 4.0 | 6.0 | 0.00 | 0.00 | 0.00 | 17 | 1011.8 |
| 20260504000502 | 70 | 297 | 5.0 | 6.0 | 0.00 | 0.00 | 0.00 | 15 | 1011.7 |
| 20260504000303 | 70 | 288 | 5.0 | 10.0 | 0.00 | 0.00 | 0.00 | 17 | 1011.7 |
| 20260504000204 | 70 | 285 | 4.0 | 10.0 | 0.00 | 0.00 | 0.00 | 15 | 1011.8 |
| 20260504000003 | 69 | 281 | 4.0 | 10.0 | 0.00 | 0.00 | 0.00 | 15 | 1011.8 |
| 20260503235905 | 69 | 277 | 4.0 | 10.0 | 0.00 | 0.00 | 0.00 | 17 | 1011.7 |
| 20260503235804 | 70 | 274 | 4.0 | 10.0 | 0.00 | 0.00 | 0.00 | 17 | 1011.7 |
| 20260503235703 | 70 | 270 | 4.0 | 10.0 | 0.00 | 0.00 | 0.00 | 18 | 1011.8 |
| 20260503235603 | 70 | 268 | 3.0 | 10.0 | 0.00 | 0.00 | 0.00 | 15 | 1011.7 |
| 20260503235502 | 70 | 267 | 3.0 | 10.0 | 0.00 | 0.00 | 0.00 | 15 | 1011.7 |
| 20260503235404 | 70 | 265 | 3.0 | 9.0 | 0.00 | 0.00 | 0.00 | 15 | 1011.8 |
| 20260503235304 | 70 | 264 | 3.0 | 7.0 | 0.00 | 0.00 | 0.00 | 16 | 1011.7 |
| 20260503235202 | 70 | 265 | 4.0 | 7.0 | 0.00 | 0.00 | 0.00 | 17 | 1011.8 |
| 20260503235103 | 70 | 266 | 4.0 | 7.0 | 0.00 | 0.00 | 0.00 | 16 | 1011.8 |
| 20260503235002 | 70 | 265 | 4.0 | 7.0 | 0.00 | 0.00 | 0.00 | 16 | 1011.8 |
| 20260503234903 | 70 | 269 | 5.0 | 7.0 | 0.00 | 0.00 | 0.00 | 16 | 1011.8 |
| 20260503234803 | 70 | 270 | 5.0 | 7.0 | 0.00 | 0.00 | 0.00 | 15 | 1011.7 |
| 20260503234702 | 70 | 271 | 5.0 | 7.0 | 0.00 | 0.00 | 0.00 | 17 | 1011.8 |
| 20260503234603 | 70 | 270 | 6.0 | 7.0 | 0.00 | 0.00 | 0.00 | 19 | 1011.9 |
| 20260503234503 | 70 | 265 | 6.0 | 8.0 | 0.00 | 0.00 | 0.00 | 16 | 1011.8 |
| 20260503234402 | 70 | 258 | 6.0 | 9.0 | 0.00 | 0.00 | 0.00 | 16 | 1011.8 |
| 20260503234302 | 70 | 252 | 6.0 | 10.0 | 0.00 | 0.00 | 0.00 | 16 | 1011.8 |
| 20260503234203 | 70 | 245 | 6.0 | 11.0 | 0.00 | 0.00 | 0.00 | 16 | 1011.9 |
| 20260503234103 | 70 | 239 | 6.0 | 11.0 | 0.00 | 0.00 | 0.00 | 16 | 1011.8 |
| 20260503234002 | 70 | 235 | 6.0 | 11.0 | 0.00 | 0.00 | 0.00 | 16 | 1011.8 |
| 20260503233903 | 70 | 233 | 6.0 | 11.0 | 0.00 | 0.00 | 0.00 | 16 | 1011.9 |
| 20260503233802 | 70 | 230 | 5.0 | 11.0 | 0.00 | 0.00 | 0.00 | 16 | 1011.9 |
| 20260503233702 | 70 | 227 | 5.0 | 11.0 | 0.00 | 0.00 | 0.00 | 16 | 1011.8 |
| 20260503233603 | 70 | 225 | 5.0 | 11.0 | 0.00 | 0.00 | 0.00 | 15 | 1011.8 |
| 20260503233502 | 70 | 225 | 5.0 | 11.0 | 0.00 | 0.00 | 0.00 | 15 | 1011.8 |
| 20260503233403 | 70 | 226 | 5.0 | 11.0 | 0.00 | 0.00 | 0.00 | 15 | 1011.8 |
| 20260503233302 | 70 | 229 | 5.0 | 11.0 | 0.00 | 0.00 | 0.00 | 15 | 1011.8 |
| 20260503233202 | 70 | 234 | 5.0 | 11.0 | 0.00 | 0.00 | 0.00 | 15 | 1011.8 |
| 20260503233103 | 70 | 239 | 5.0 | 11.0 | 0.00 | 0.00 | 0.00 | 15 | 1011.8 |
| 20260503233002 | 70 | 245 | 5.0 | 9.0 | 0.00 | 0.00 | 0.00 | 16 | 1011.9 |
| 20260503232902 | 70 | 250 | 5.0 | 9.0 | 0.00 | 0.00 | 0.00 | 16 | 1011.8 |
| 20260503232803 | 70 | 254 | 5.0 | 9.0 | 0.00 | 0.00 | 0.00 | 16 | 1011.8 |
| 20260503232702 | 70 | 257 | 6.0 | 9.0 | 0.00 | 0.00 | 0.00 | 15 | 1011.8 |
| 20260503232602 | 70 | 263 | 6.0 | 9.0 | 0.00 | 0.00 | 0.00 | 16 | 1011.8 |
| 20260503232503 | 70 | 270 | 7.0 | 8.0 | 0.00 | 0.00 | 0.00 | 16 | 1011.8 |
| 20260503232403 | 70 | 273 | 7.0 | 8.0 | 0.00 | 0.00 | 0.00 | 15 | 1011.8 |
| 20260503232305 | 70 | 277 | 8.0 | 10.0 | 0.00 | 0.00 | 0.00 | 15 | 1011.8 |
| 20260503232203 | 70 | 277 | 8.0 | 10.0 | 0.00 | 0.00 | 0.00 | 16 | 1011.9 |
| 20260503232103 | 70 | 277 | 9.0 | 10.0 | 0.00 | 0.00 | 0.00 | 16 | 1011.8 |
| 20260503232002 | 70 | 278 | 10.0 | 12.0 | 0.00 | 0.00 | 0.00 | 17 | 1011.8 |
| 20260503231902 | 70 | 273 | 10.0 | 16.0 | 0.00 | 0.00 | 0.00 | 16 | 1011.8 |
| 20260503231803 | 70 | 270 | 11.0 | 16.0 | 0.00 | 0.00 | 0.00 | 17 | 1011.8 |
| 20260503231702 | 70 | 267 | 11.0 | 20.0 | 0.00 | 0.00 | 0.00 | 15 | 1011.8 |
| 20260503231602 | 70 | 265 | 11.0 | 20.0 | 0.00 | 0.00 | 0.00 | 16 | 1011.8 |
| 20260503231503 | 70 | 261 | 11.0 | 20.0 | 0.00 | 0.00 | 0.00 | 16 | 1011.8 |
| 20260503231403 | 70 | 256 | 11.0 | 20.0 | 0.00 | 0.00 | 0.00 | 16 | 1011.9 |
| 20260503231203 | 70 | 252 | 11.0 | 20.0 | 0.00 | 0.00 | 0.00 | 15 | 1011.8 |
| 20260503231103 | 70 | 250 | 11.0 | 20.0 | 0.00 | 0.00 | 0.00 | 15 | 1011.8 |
| 20260503231002 | 70 | 248 | 11.0 | 20.0 | 0.00 | 0.00 | 0.00 | 15 | 1011.8 |
| 20260503230902 | 70 | 247 | 11.0 | 20.0 | 0.00 | 0.00 | 0.00 | 15 | 1011.8 |
| 20260503230803 | 71 | 245 | 10.0 | 20.0 | 0.00 | 0.00 | 0.00 | 15 | 1011.9 |
| 20260503230702 | 71 | 243 | 10.0 | 19.0 | 0.00 | 0.00 | 0.00 | 15 | 1011.9 |
| 20260503230602 | 71 | 244 | 10.0 | 19.0 | 0.00 | 0.00 | 0.00 | 15 | 1011.9 |
| 20260503230503 | 71 | 246 | 10.0 | 19.0 | 0.00 | 0.00 | 0.00 | 15 | 1011.9 |
| 20260503230402 | 71 | 249 | 10.0 | 15.0 | 0.00 | 0.00 | 0.00 | 15 | 1012.0 |
| 20260503230302 | 71 | 250 | 10.0 | 15.0 | 0.00 | 0.00 | 0.00 | 16 | 1012.0 |
| 20260503230203 | 71 | 250 | 10.0 | 15.0 | 0.00 | 0.00 | 0.00 | 15 | 1012.0 |
| 20260503230002 | 71 | 253 | 10.0 | 19.0 | 0.00 | 0.00 | 0.00 | 15 | 1012.0 |
| 20260503225902 | 71 | 254 | 10.0 | 19.0 | 0.00 | 0.00 | 0.00 | 16 | 1012.0 |
| 20260503225803 | 71 | 255 | 11.0 | 19.0 | 0.00 | 0.00 | 0.00 | 15 | 1012.0 |
| 20260503225602 | 71 | 254 | 11.0 | 19.0 | 0.00 | 0.00 | 0.00 | 15 | 1012.0 |
| 20260503225503 | 71 | 253 | 11.0 | 19.0 | 0.00 | 0.00 | 0.00 | 15 | 1012.0 |
| 20260503225403 | 71 | 255 | 11.0 | 20.0 | 0.00 | 0.00 | 0.00 | 15 | 1012.0 |
| 20260503225304 | 71 | 255 | 11.0 | 20.0 | 0.00 | 0.00 | 0.00 | 15 | 1012.0 |
| 20260503225203 | 71 | 254 | 11.0 | 20.0 | 0.00 | 0.00 | 0.00 | 15 | 1012.0 |
| 20260503225103 | 71 | 253 | 11.0 | 20.0 | 0.00 | 0.00 | 0.00 | 15 | 1012.1 |
| 20260503225002 | 70 | 251 | 11.0 | 20.0 | 0.00 | 0.00 | 0.00 | 15 | 1012.0 |
| 20260503224903 | 70 | 248 | 12.0 | 20.0 | 0.00 | 0.00 | 0.00 | 15 | 1011.9 |
| 20260503224702 | 70 | 249 | 12.0 | 20.0 | 0.00 | 0.00 | 0.00 | 14 | 1011.9 |
| 20260503224602 | 70 | 248 | 12.0 | 20.0 | 0.00 | 0.00 | 0.00 | 15 | 1012.0 |
| 20260503224503 | 70 | 249 | 12.0 | 20.0 | 0.00 | 0.00 | 0.00 | 15 | 1012.0 |
| 20260503224403 | 70 | 249 | 12.0 | 18.0 | 0.00 | 0.00 | 0.00 | 16 | 1012.1 |
| 20260503224302 | 70 | 248 | 12.0 | 21.0 | 0.00 | 0.00 | 0.00 | 15 | 1012.0 |
| 20260503224103 | 70 | 253 | 12.0 | 22.0 | 0.00 | 0.00 | 0.00 | 15 | 1012.1 |
| 20260503224002 | 70 | 253 | 11.0 | 22.0 | 0.00 | 0.00 | 0.00 | 15 | 1012.0 |
| 20260503223902 | 70 | 255 | 11.0 | 22.0 | 0.00 | 0.00 | 0.00 | 14 | 1012.1 |
| 20260503223803 | 71 | 257 | 11.0 | 22.0 | 0.00 | 0.00 | 0.00 | 15 | 1012.2 |
| 20260503223703 | 70 | 256 | 10.0 | 22.0 | 0.00 | 0.00 | 0.00 | 15 | 1012.2 |
| 20260503223502 | 71 | 256 | 10.0 | 22.0 | 0.00 | 0.00 | 0.00 | 15 | 1012.2 |
| 20260503223403 | 71 | 256 | 10.0 | 22.0 | 0.00 | 0.00 | 0.00 | 15 | 1012.2 |
| 20260503223303 | 71 | 255 | 10.0 | 22.0 | 0.00 | 0.00 | 0.00 | 14 | 1012.2 |
| 20260503223202 | 71 | 255 | 10.0 | 22.0 | 0.00 | 0.00 | 0.00 | 14 | 1012.2 |
| 20260503223103 | 71 | 252 | 10.0 | 18.0 | 0.00 | 0.00 | 0.00 | 15 | 1012.2 |
| 20260503223003 | 71 | 252 | 10.0 | 18.0 | 0.00 | 0.00 | 0.00 | 15 | 1012.2 |
| 20260503222902 | 70 | 253 | 11.0 | 18.0 | 0.00 | 0.00 | 0.00 | 15 | 1012.2 |
| 20260503222803 | 71 | 252 | 11.0 | 18.0 | 0.00 | 0.00 | 0.00 | 15 | 1012.2 |
| 20260503222703 | 70 | 253 | 12.0 | 18.0 | 0.00 | 0.00 | 0.00 | 16 | 1012.2 |
| 20260503222602 | 70 | 249 | 12.0 | 20.0 | 0.00 | 0.00 | 0.00 | 15 | 1012.4 |
| 20260503222503 | 71 | 247 | 12.0 | 20.0 | 0.00 | 0.00 | 0.00 | 15 | 1012.3 |
| 20260503222403 | 71 | 245 | 13.0 | 20.0 | 0.00 | 0.00 | 0.00 | 14 | 1012.2 |
| 20260503222304 | 71 | 245 | 13.0 | 20.0 | 0.00 | 0.00 | 0.00 | 16 | 1012.4 |
| 20260503222202 | 70 | 242 | 13.0 | 20.0 | 0.00 | 0.00 | 0.00 | 16 | 1012.4 |
| 20260503222103 | 70 | 239 | 14.0 | 20.0 | 0.00 | 0.00 | 0.00 | 15 | 1012.3 |
| 20260503222003 | 70 | 237 | 14.0 | 21.0 | 0.00 | 0.00 | 0.00 | 14 | 1012.3 |
| 20260503221802 | 70 | 235 | 14.0 | 21.0 | 0.00 | 0.00 | 0.00 | 14 | 1012.4 |
| 20260503221702 | 70 | 234 | 13.0 | 21.0 | 0.00 | 0.00 | 0.00 | 14 | 1012.4 |
| 20260503221603 | 70 | 236 | 13.0 | 22.0 | 0.00 | 0.00 | 0.00 | 15 | 1012.4 |
| 20260503221502 | 70 | 236 | 13.0 | 22.0 | 0.00 | 0.00 | 0.00 | 15 | 1012.4 |
| 20260503221403 | 70 | 235 | 12.0 | 22.0 | 0.00 | 0.00 | 0.00 | 15 | 1012.5 |
| 20260503221303 | 70 | 234 | 12.0 | 22.0 | 0.00 | 0.00 | 0.00 | 15 | 1012.5 |
| 20260503221202 | 70 | 235 | 12.0 | 22.0 | 0.00 | 0.00 | 0.00 | 14 | 1012.5 |
| 20260503221103 | 70 | 238 | 11.0 | 22.0 | 0.00 | 0.00 | 0.00 | 14 | 1012.5 |
| 20260503221002 | 70 | 240 | 11.0 | 22.0 | 0.00 | 0.00 | 0.00 | 14 | 1012.5 |
| 20260503220903 | 70 | 236 | 11.0 | 22.0 | 0.00 | 0.00 | 0.00 | 15 | 1012.6 |
| 20260503220803 | 71 | 234 | 10.0 | 22.0 | 0.00 | 0.00 | 0.00 | 15 | 1012.6 |
| 20260503220702 | 71 | 229 | 10.0 | 22.0 | 0.00 | 0.00 | 0.00 | 14 | 1012.6 |
| 20260503220603 | 71 | 219 | 10.0 | 19.0 | 0.00 | 0.00 | 0.00 | 15 | 1012.6 |
| 20260503220503 | 71 | 212 | 10.0 | 19.0 | 0.00 | 0.00 | 0.00 | 15 | 1012.6 |
| 20260503220402 | 71 | 210 | 10.0 | 19.0 | 0.00 | 0.00 | 0.00 | 14 | 1012.6 |
| 20260503220302 | 71 | 207 | 10.0 | 19.0 | 0.00 | 0.00 | 0.00 | 15 | 1012.7 |
| 20260503220203 | 71 | 206 | 10.0 | 19.0 | 0.00 | 0.00 | 0.00 | 14 | 1012.7 |
| 20260503220002 | 71 | 194 | 11.0 | 19.0 | 0.00 | 0.00 | 0.00 | 15 | 1012.8 |
| 20260503215903 | 71 | 200 | 11.0 | 19.0 | 0.00 | 0.00 | 0.00 | 15 | 1012.7 |
| 20260503215803 | 70 | 200 | 11.0 | 19.0 | 0.00 | 0.00 | 0.00 | 15 | 1012.7 |
| 20260503215702 | 70 | 206 | 11.0 | 19.0 | 0.00 | 0.00 | 0.00 | 15 | 1012.7 |
| 20260503215603 | 70 | 214 | 11.0 | 19.0 | 0.00 | 0.00 | 0.00 | 14 | 1012.7 |
| 20260503215503 | 70 | 220 | 11.0 | 19.0 | 0.00 | 0.00 | 0.00 | 14 | 1012.8 |
| 20260503215402 | 71 | 222 | 11.0 | 19.0 | 0.00 | 0.00 | 0.00 | 15 | 1012.9 |
| 20260503215304 | 71 | 225 | 11.0 | 19.0 | 0.00 | 0.00 | 0.00 | 15 | 1012.9 |
| 20260503215202 | 71 | 228 | 11.0 | 19.0 | 0.00 | 0.00 | 0.00 | 14 | 1012.8 |
| 20260503215103 | 71 | 231 | 11.0 | 19.0 | 0.00 | 0.00 | 0.00 | 14 | 1012.7 |
| 20260503215002 | 71 | 233 | 11.0 | 19.0 | 0.00 | 0.00 | 0.00 | 15 | 1012.9 |
| 20260503214903 | 70 | 234 | 11.0 | 19.0 | 0.00 | 0.00 | 0.00 | 14 | 1012.9 |
| 20260503214802 | 71 | 234 | 10.0 | 19.0 | 0.00 | 0.00 | 0.00 | 14 | 1012.9 |
| 20260503214703 | 71 | 235 | 10.0 | 19.0 | 0.00 | 0.00 | 0.00 | 15 | 1012.9 |
| 20260503214602 | 71 | 230 | 10.0 | 19.0 | 0.00 | 0.00 | 0.00 | 14 | 1012.8 |
| 20260503214503 | 71 | 224 | 10.0 | 19.0 | 0.00 | 0.00 | 0.00 | 15 | 1012.9 |
| 20260503214402 | 71 | 217 | 10.0 | 19.0 | 0.00 | 0.00 | 0.00 | 14 | 1012.9 |
| 20260503214303 | 71 | 204 | 10.0 | 19.0 | 0.00 | 0.00 | 0.00 | 14 | 1012.9 |
| 20260503214202 | 71 | 191 | 10.0 | 19.0 | 0.00 | 0.00 | 0.00 | 14 | 1012.9 |
| 20260503214103 | 71 | 172 | 10.0 | 19.0 | 0.00 | 0.00 | 0.00 | 14 | 1013.0 |
| 20260503214002 | 71 | 164 | 10.0 | 19.0 | 0.00 | 0.00 | 0.00 | 14 | 1013.0 |
| 20260503213903 | 71 | 162 | 9.0 | 16.0 | 0.00 | 0.00 | 0.00 | 14 | 1013.0 |
| 20260503213802 | 71 | 160 | 9.0 | 16.0 | 0.00 | 0.00 | 0.00 | 15 | 1013.1 |
| 20260503213703 | 71 | 158 | 9.0 | 16.0 | 0.00 | 0.00 | 0.00 | 15 | 1013.1 |
| 20260503213602 | 71 | 157 | 9.0 | 21.0 | 0.00 | 0.00 | 0.00 | 15 | 1013.2 |
| 20260503213502 | 71 | 159 | 9.0 | 24.0 | 0.00 | 0.00 | 0.00 | 15 | 1013.1 |
| 20260503213403 | 71 | 160 | 8.0 | 24.0 | 0.00 | 0.00 | 0.00 | 14 | 1013.1 |
| 20260503213303 | 71 | 159 | 8.0 | 24.0 | 0.00 | 0.00 | 0.00 | 14 | 1013.2 |
| 20260503213202 | 71 | 162 | 7.0 | 24.0 | 0.00 | 0.00 | 0.00 | 14 | 1013.2 |
| 20260503213102 | 71 | 170 | 7.0 | 24.0 | 0.00 | 0.00 | 0.00 | 14 | 1013.1 |
| 20260503213003 | 71 | 167 | 6.0 | 24.0 | 0.00 | 0.00 | 0.00 | 15 | 1013.2 |
| 20260503212903 | 71 | 160 | 6.0 | 24.0 | 0.00 | 0.00 | 0.00 | 15 | 1013.3 |
| 20260503212802 | 71 | 155 | 6.0 | 24.0 | 0.00 | 0.00 | 0.00 | 15 | 1013.3 |
| 20260503212703 | 71 | 149 | 5.0 | 24.0 | 0.00 | 0.00 | 0.00 | 15 | 1013.3 |
| 20260503212603 | 71 | 150 | 5.0 | 24.0 | 0.00 | 0.00 | 0.00 | 14 | 1013.2 |
| 20260503212502 | 71 | 152 | 5.0 | 15.0 | 0.00 | 0.00 | 0.00 | 14 | 1013.4 |
| 20260503212402 | 72 | 156 | 4.0 | 12.0 | 0.00 | 0.00 | 0.00 | 14 | 1013.4 |
| 20260503212304 | 72 | 170 | 4.0 | 11.0 | 0.00 | 0.00 | 0.00 | 14 | 1013.3 |
| 20260503212203 | 72 | 175 | 4.0 | 11.0 | 0.00 | 0.00 | 0.00 | 13 | 1013.2 |
| 20260503212102 | 71 | 174 | 4.0 | 11.0 | 0.00 | 0.00 | 0.00 | 14 | 1013.4 |
| 20260503212003 | 71 | 178 | 4.0 | 11.0 | 0.00 | 0.00 | 0.00 | 13 | 1013.3 |
| 20260503211903 | 71 | 182 | 4.0 | 11.0 | 0.00 | 0.00 | 0.00 | 13 | 1013.2 |
| 20260503211802 | 72 | 173 | 4.0 | 11.0 | 0.00 | 0.00 | 0.00 | 14 | 1013.4 |
| 20260503211703 | 71 | 184 | 4.0 | 8.0 | 0.00 | 0.00 | 0.00 | 14 | 1013.4 |
| 20260503211402 | 71 | 161 | 4.0 | 10.0 | 0.00 | 0.00 | 0.00 | 15 | 1013.5 |
| 20260503211303 | 72 | 152 | 4.0 | 10.0 | 0.00 | 0.00 | 0.00 | 15 | 1013.5 |
| 20260503211203 | 72 | 143 | 4.0 | 10.0 | 0.00 | 0.00 | 0.00 | 13 | 1013.4 |
| 20260503211102 | 72 | 143 | 4.0 | 10.0 | 0.00 | 0.00 | 0.00 | 13 | 1013.5 |
| 20260503211002 | 72 | 153 | 4.0 | 10.0 | 0.00 | 0.00 | 0.00 | 13 | 1013.5 |
| 20260503210903 | 72 | 161 | 4.0 | 10.0 | 0.00 | 0.00 | 0.00 | 14 | 1013.6 |
| 20260503210803 | 72 | 177 | 4.0 | 10.0 | 0.00 | 0.00 | 0.00 | 13 | 1013.5 |
| 20260503210702 | 72 | 187 | 4.0 | 10.0 | 0.00 | 0.00 | 0.00 | 14 | 1013.6 |
| 20260503210503 | 72 | 205 | 3.0 | 10.0 | 0.00 | 0.00 | 0.00 | 14 | 1013.7 |
| 20260503210402 | 72 | 218 | 3.0 | 10.0 | 0.00 | 0.00 | 0.00 | 14 | 1013.6 |
| 20260503210303 | 72 | 231 | 3.0 | 10.0 | 0.00 | 0.00 | 0.00 | 13 | 1013.7 |
| 20260503210202 | 72 | 239 | 3.0 | 10.0 | 0.00 | 0.00 | 0.00 | 14 | 1013.7 |
| 20260503210003 | 72 | 288 | 3.0 | 10.0 | 0.00 | 0.00 | 0.00 | 15 | 1013.8 |
| 20260503205903 | 72 | 344 | 3.0 | 10.0 | 0.00 | 0.00 | 0.00 | 14 | 1013.8 |
| 20260503205802 | 72 | 7 | 3.0 | 10.0 | 0.00 | 0.00 | 0.00 | 14 | 1013.9 |
| 20260503205703 | 72 | 28 | 3.0 | 7.0 | 0.00 | 0.00 | 0.00 | 14 | 1013.8 |
| 20260503205603 | 71 | 31 | 3.0 | 7.0 | 0.00 | 0.00 | 0.00 | 14 | 1013.8 |
| 20260503205502 | 72 | 32 | 3.0 | 7.0 | 0.00 | 0.00 | 0.00 | 13 | 1013.7 |
| 20260503205403 | 72 | 37 | 4.0 | 7.0 | 0.00 | 0.00 | 0.00 | 15 | 1013.9 |
| 20260503205304 | 72 | 60 | 4.0 | 8.0 | 0.00 | 0.00 | 0.00 | 14 | 1013.8 |
| 20260503205202 | 72 | 164 | 4.0 | 11.0 | 0.00 | 0.00 | 0.00 | 14 | 1013.8 |
| 20260503205103 | 72 | 187 | 4.0 | 11.0 | 0.00 | 0.00 | 0.00 | 15 | 1013.9 |
| 20260503204902 | 71 | 199 | 3.0 | 14.0 | 0.00 | 0.00 | 0.00 | 15 | 1013.9 |
| 20260503204803 | 71 | 203 | 3.0 | 14.0 | 0.00 | 0.00 | 0.00 | 13 | 1013.9 |
| 20260503204703 | 71 | 203 | 3.0 | 14.0 | 0.00 | 0.00 | 0.00 | 13 | 1013.9 |
| 20260503204602 | 71 | 204 | 3.0 | 14.0 | 0.00 | 0.00 | 0.00 | 13 | 1014.0 |
| 20260503204502 | 71 | 205 | 3.0 | 14.0 | 0.00 | 0.00 | 0.00 | 14 | 1014.0 |
| 20260503204403 | 71 | 207 | 3.0 | 14.0 | 0.00 | 0.00 | 0.00 | 13 | 1014.0 |
| 20260503204303 | 72 | 209 | 4.0 | 14.0 | 0.00 | 0.00 | 0.00 | 13 | 1014.0 |
| 20260503204203 | 72 | 217 | 4.0 | 14.0 | 0.00 | 0.00 | 0.00 | 15 | 1014.1 |
| 20260503204102 | 72 | 222 | 5.0 | 14.0 | 0.00 | 0.00 | 0.00 | 13 | 1014.0 |
| 20260503204002 | 72 | 234 | 5.0 | 14.0 | 0.00 | 0.00 | 0.00 | 13 | 1014.0 |
| 20260503203902 | 72 | 238 | 6.0 | 7.0 | 0.00 | 0.00 | 0.00 | 15 | 1014.2 |
| 20260503203802 | 71 | 242 | 6.0 | 12.0 | 0.00 | 0.00 | 0.00 | 14 | 1014.1 |
| 20260503203703 | 71 | 221 | 6.0 | 12.0 | 0.00 | 0.00 | 0.00 | 14 | 1014.1 |
| 20260503203603 | 70 | 196 | 6.0 | 12.0 | 0.00 | 0.00 | 0.00 | 14 | 1014.1 |
| 20260503203502 | 70 | 203 | 6.0 | 12.0 | 0.00 | 0.00 | 0.00 | 14 | 1014.1 |
| 20260503203402 | 70 | 206 | 6.0 | 12.0 | 0.00 | 0.00 | 0.00 | 13 | 1014.2 |
| 20260503203303 | 70 | 202 | 6.0 | 12.0 | 0.00 | 0.00 | 0.00 | 13 | 1014.2 |
| 20260503203203 | 70 | 201 | 6.0 | 12.0 | 0.00 | 0.00 | 0.00 | 13 | 1014.2 |
| 20260503203002 | 70 | 192 | 6.0 | 12.0 | 0.00 | 0.00 | 0.00 | 13 | 1014.3 |
| 20260503202903 | 70 | 183 | 6.0 | 12.0 | 0.00 | 0.00 | 0.00 | 13 | 1014.3 |
| 20260503202803 | 71 | 172 | 6.0 | 12.0 | 0.00 | 0.00 | 0.00 | 13 | 1014.3 |
| 20260503202702 | 71 | 174 | 6.0 | 12.0 | 0.00 | 0.00 | 0.00 | 13 | 1014.4 |
| 20260503202603 | 71 | 179 | 6.0 | 12.0 | 0.00 | 0.00 | 0.00 | 14 | 1014.4 |
| 20260503202503 | 71 | 177 | 7.0 | 12.0 | 0.00 | 0.00 | 0.00 | 14 | 1014.4 |
| 20260503202402 | 71 | 178 | 6.0 | 12.0 | 0.00 | 0.00 | 0.00 | 14 | 1014.5 |
| 20260503202304 | 71 | 182 | 6.0 | 12.0 | 0.00 | 0.00 | 0.00 | 14 | 1014.5 |
| 20260503202202 | 71 | 167 | 6.0 | 14.0 | 0.00 | 0.00 | 0.00 | 13 | 1014.4 |
| 20260503202102 | 71 | 159 | 6.0 | 14.0 | 0.00 | 0.00 | 0.00 | 14 | 1014.3 |
| 20260503202003 | 71 | 156 | 5.0 | 14.0 | 0.00 | 0.00 | 0.00 | 14 | 1014.5 |
| 20260503201902 | 70 | 153 | 5.0 | 14.0 | 0.00 | 0.00 | 0.00 | 14 | 1014.5 |
| 20260503201803 | 70 | 141 | 5.0 | 14.0 | 0.00 | 0.00 | 0.00 | 14 | 1014.5 |
| 20260503201703 | 70 | 137 | 4.0 | 14.0 | 0.00 | 0.00 | 0.00 | 16 | 1014.6 |
| 20260503201602 | 70 | 132 | 4.0 | 14.0 | 0.00 | 0.00 | 0.00 | 15 | 1014.6 |
| 20260503201502 | 70 | 119 | 4.0 | 14.0 | 0.00 | 0.00 | 0.00 | 14 | 1014.6 |
| 20260503201403 | 70 | 105 | 4.0 | 14.0 | 0.00 | 0.00 | 0.00 | 15 | 1014.5 |
| 20260503201302 | 70 | 96 | 4.0 | 14.0 | 0.00 | 0.00 | 0.00 | 15 | 1014.6 |
| 20260503201203 | 70 | 94 | 5.0 | 14.0 | 0.00 | 0.00 | 0.00 | 14 | 1014.5 |
| 20260503201002 | 70 | 133 | 5.0 | 11.0 | 0.00 | 0.00 | 0.00 | 14 | 1014.6 |
| 20260503200803 | 70 | 177 | 5.0 | 11.0 | 0.00 | 0.00 | 0.00 | 14 | 1014.6 |
| 20260503200702 | 70 | 191 | 5.0 | 11.0 | 0.00 | 0.00 | 0.00 | 15 | 1014.7 |
| 20260503200603 | 70 | 207 | 5.0 | 11.0 | 0.00 | 0.00 | 0.00 | 16 | 1014.7 |
| 20260503200503 | 69 | 209 | 5.0 | 11.0 | 0.00 | 0.00 | 0.00 | 14 | 1014.7 |
| 20260503200402 | 69 | 214 | 5.0 | 11.0 | 0.00 | 0.00 | 0.00 | 14 | 1014.7 |
| 20260503200303 | 69 | 222 | 5.0 | 11.0 | 0.00 | 0.00 | 0.00 | 14 | 1014.6 |
| 20260503200203 | 70 | 222 | 5.0 | 11.0 | 0.00 | 0.00 | 0.00 | 13 | 1014.7 |
| 20260503200003 | 70 | 223 | 5.0 | 11.0 | 0.00 | 0.00 | 0.00 | 14 | 1014.8 |
| 20260503195902 | 70 | 236 | 5.0 | 11.0 | 0.00 | 0.00 | 0.00 | 15 | 1014.9 |
| 20260503195803 | 69 | 257 | 6.0 | 11.0 | 0.00 | 0.00 | 0.00 | 15 | 1014.9 |
| 20260503195703 | 69 | 263 | 6.0 | 11.0 | 0.00 | 0.00 | 0.00 | 15 | 1014.9 |
| 20260503195602 | 69 | 266 | 6.0 | 8.0 | 0.00 | 0.00 | 0.00 | 15 | 1014.9 |
| 20260503195502 | 69 | 267 | 7.0 | 8.0 | 0.00 | 0.00 | 0.00 | 15 | 1015.0 |
| 20260503195403 | 69 | 260 | 7.0 | 12.0 | 0.00 | 0.00 | 0.00 | 16 | 1015.0 |
| 20260503195304 | 69 | 251 | 7.0 | 13.0 | 0.00 | 0.00 | 0.00 | 16 | 1015.0 |
| 20260503195203 | 69 | 250 | 8.0 | 13.0 | 0.00 | 0.00 | 0.00 | 16 | 1015.1 |
| 20260503195102 | 68 | 254 | 8.0 | 13.0 | 0.00 | 0.00 | 0.00 | 16 | 1015.0 |
| 20260503195002 | 68 | 253 | 8.0 | 13.0 | 0.00 | 0.00 | 0.00 | 16 | 1015.0 |
| 20260503194903 | 68 | 253 | 8.0 | 13.0 | 0.00 | 0.00 | 0.00 | 16 | 1015.1 |
| 20260503194802 | 68 | 250 | 8.0 | 13.0 | 0.00 | 0.00 | 0.00 | 18 | 1015.1 |
| 20260503194603 | 68 | 249 | 8.0 | 13.0 | 0.00 | 0.00 | 0.00 | 16 | 1015.1 |
| 20260503194503 | 68 | 248 | 7.0 | 13.0 | 0.00 | 0.00 | 0.00 | 16 | 1015.1 |
| 20260503194402 | 68 | 248 | 7.0 | 13.0 | 0.00 | 0.00 | 0.00 | 15 | 1015.2 |
| 20260503194303 | 68 | 248 | 7.0 | 13.0 | 0.00 | 0.00 | 0.00 | 16 | 1015.2 |
| 20260503194203 | 68 | 244 | 6.0 | 13.0 | 0.00 | 0.00 | 0.00 | 16 | 1015.2 |
| 20260503194102 | 68 | 240 | 6.0 | 13.0 | 0.00 | 0.00 | 0.00 | 15 | 1015.2 |
| 20260503194003 | 68 | 238 | 6.0 | 13.0 | 0.00 | 0.00 | 0.00 | 16 | 1015.3 |
| 20260503193903 | 68 | 240 | 5.0 | 13.0 | 0.00 | 0.00 | 0.00 | 15 | 1015.3 |
| 20260503193802 | 69 | 241 | 5.0 | 13.0 | 0.00 | 0.00 | 0.00 | 16 | 1015.3 |
| 20260503193702 | 69 | 241 | 5.0 | 13.0 | 0.00 | 0.00 | 0.00 | 17 | 1015.3 |
| 20260503193603 | 69 | 239 | 4.0 | 13.0 | 0.00 | 0.00 | 0.00 | 16 | 1015.4 |
| 20260503193503 | 69 | 238 | 4.0 | 13.0 | 0.00 | 0.00 | 0.00 | 15 | 1015.4 |
| 20260503193203 | 68 | 251 | 5.0 | 12.0 | 0.00 | 0.00 | 0.00 | 17 | 1015.6 |
| 20260503192503 | 68 | 247 | 5.0 | 11.0 | 0.00 | 0.00 | 0.00 | 17 | 1015.7 |
| 20260503192403 | 68 | 241 | 5.0 | 12.0 | 0.00 | 0.00 | 0.00 | 17 | 1015.7 |
| 20260503191002 | 67 | 301 | 3.0 | 9.0 | 0.00 | 0.00 | 0.00 | 16 | 1015.6 |
| 20260503190903 | 67 | 289 | 3.0 | 9.0 | 0.00 | 0.00 | 0.00 | 17 | 1015.7 |
| 20260503190503 | 68 | 285 | 5.0 | 9.0 | 0.00 | 0.00 | 0.00 | 16 | 1016.2 |
| 20260503190203 | 67 | 299 | 6.0 | 9.0 | 0.00 | 0.00 | 0.00 | 18 | 1016.0 |
| 20260503190003 | 67 | 280 | 7.0 | 10.0 | 0.00 | 0.00 | 0.00 | 19 | 1016.0 |
| 20260503185503 | 66 | 255 | 6.0 | 12.0 | 0.00 | 0.00 | 0.00 | 18 | 1016.1 |
| 20260503184503 | 66 | 249 | 6.0 | 12.0 | 0.00 | 0.00 | 0.00 | 18 | 1016.2 |
| 20260503184003 | 65 | 270 | 7.0 | 12.0 | 0.00 | 0.00 | 0.00 | 19 | 1016.4 |
| 20260503183703 | 65 | 269 | 8.0 | 13.0 | 0.00 | 0.00 | 0.00 | 18 | 1016.3 |
| 20260503183404 | 65 | 261 | 8.0 | 14.0 | 0.00 | 0.00 | 0.00 | 20 | 1016.4 |
| 20260503183103 | 65 | 250 | 8.0 | 14.0 | 0.00 | 0.00 | 0.00 | 19 | 1016.5 |
| 20260503182503 | 66 | 251 | 8.0 | 14.0 | 0.00 | 0.00 | 0.00 | 19 | 1016.6 |
| 20260503182103 | 65 | 261 | 7.0 | 13.0 | 0.00 | 0.00 | 0.00 | 20 | 1016.6 |
| 20260503181903 | 65 | 252 | 7.0 | 13.0 | 0.00 | 0.00 | 0.00 | 19 | 1016.6 |
| 20260503181603 | 66 | 249 | 7.0 | 13.0 | 0.00 | 0.00 | 0.00 | 20 | 1016.6 |
| 20260503181504 | 66 | 246 | 7.0 | 13.0 | 0.00 | 0.00 | 0.00 | 21 | 1016.7 |
| 20260503181203 | 66 | 233 | 7.0 | 13.0 | 0.00 | 0.00 | 0.00 | 18 | 1016.6 |
| 20260503180803 | 66 | 201 | 6.0 | 12.0 | 0.00 | 0.00 | 0.00 | 19 | 1016.6 |
| 20260503180403 | 66 | 160 | 6.0 | 12.0 | 0.00 | 0.00 | 0.00 | 19 | 1016.6 |
| 20260503180004 | 65 | 139 | 6.0 | 12.0 | 0.00 | 0.00 | 0.00 | 19 | 1016.7 |
| 20260503175903 | 65 | 137 | 6.0 | 12.0 | 0.00 | 0.00 | 0.00 | 19 | 1016.6 |
| 20260503175702 | 66 | 157 | 7.0 | 10.0 | 0.00 | 0.00 | 0.00 | 19 | 1016.6 |
| 20260503175103 | 65 | 150 | 8.0 | 12.0 | 0.00 | 0.00 | 0.00 | 19 | 1016.8 |
| 20260503174703 | 65 | 138 | 8.0 | 13.0 | 0.00 | 0.00 | 0.00 | 19 | 1016.8 |
| 20260503174503 | 65 | 128 | 8.0 | 13.0 | 0.00 | 0.00 | 0.00 | 19 | 1016.8 |